Weather in Novodruzhesk

Ukraine / Luhansk Region     48°57′49″N   38°21′07″E
temp.,
°C
wind,
m/s
gust,
m/s
humid.,
%
clouds,
%
prec.,
mm/h
press.,
hPa
HPBL,
m
20 january, thu
thu2023:00−11nnw239450 0.0 1020142
02:00−12nw239420 0.1 1020107
05:00−12w129525 0.0 102053
08:00−12wsw129422 0.0 102095
11:00−8sw348532 0.0 1020294
14:00−6ssw35825 0.0 1018338
17:00−8sse379322 0.0 1017141
20:00−8s3118495 0.0 1016254
21 january, fri
fri2123:00−6s51377100 0.0 1015325
02:00−3s61589100 0.0 1012475
05:00−2sse81794100 0.2 1008792
08:00+1ssw71394100 1.3 1007802
11:000sw61386100 0.0 1007669
14:000wsw71385100 0.9 10071222
17:00−4wsw613835 0.0 1010603
20:00−5sw513875 0.0 1011477
22 january, sat
sat2223:00−5sw512875 0.0 1012405
02:00−6ssw410875 0.0 1012290
05:00−7ssw410885 0.0 1012235
08:00−7ssw410865 0.0 1012263
11:00−4ssw488054 0.0 1013434
14:00−2ssw48825 0.0 1013641
17:00−6sse22935 0.0 101419
20:00−7s22925 0.0 101622
23 january, sun
sun2323:00−7ssw1193100 0.0 101711
02:00−7ne0194100 0.0 101712
05:00−7ene1194100 0.0 101827
08:00−7nne2391100 0.0 101979
11:00−5ne3586100 0.0 1019231
14:00−4nne4887100 0.0 1019342
17:00−5nne41090100 0.0 1019399
20:00−5n51295100 0.5 1018457
24 january, mon
mon2423:00−5n51195100 0.9 1018432
02:00−5n51095100 1.5 1017330
05:00−3nne479799 0.4 1016244
08:00−3ene4896100 0.8 1018295
11:00−3ene4694100 0.1 1018383
14:00−3ne3697100 2.0 1019409
17:00−4ne3697100 0.5 1020284
20:00−5nne2397100 0.6 102171